Погода в Кище

Россия / Республика Дагестан     42°10′28″N   47°35′02″E
темп.,
°C
ветер,
м/с
пор.,
м/с
влажн.,
%
обл.,
%
осадки,
мм/ч
давл.,
гПа
погр.,
м
7 марта, вс
вс700:000зюз4439100 0.0 101241
03:000зюз334383 0.0 101139
06:00−2з3353100 0.0 101438
09:00−1ссз237596 0.0 1018425
12:00−3всв228871 0.2 1020304
15:00−5в348885 1.1 1021465
18:00−8вюв3389100 0.6 1023336
21:00−9юв2389100 0.6 1024248
8 марта, пн
пн800:00−8ю228142 0.0 102468
03:00−6зюз116821 0.0 102225
06:00−7вюв11760 0.0 102334
09:00−4вюв22670 0.0 1021199
12:00−3в327594 0.0 1018338
15:00−4в329184 0.1 1015259
18:00−5св2294100 0.3 1016173
21:00−6всв1194100 0.9 1018170
9 марта, вт
вт900:00−6ссз129499 0.3 1017173
03:00−7сз119695 0.4 101744
06:00−7зсз119485 0.0 101728
09:00−4св118078 0.1 1017378
12:00−4в329095 0.2 1016323
15:00−4в329097 0.8 1016329
18:00−5вюв1195100 0.4 1018146
21:00−6ююз118995 0.4 101930
10 марта, ср
ср1000:00−6з118679 0.0 102023
03:00−6сз119189 0.3 102163
06:00−7юз119399 0.3 102289
09:00−6в218193 0.4 1024478
12:00−5в3388100 0.7 1023519
15:00−5в3390100 1.9 1022472
18:00−7в2396100 1.3 1023255
21:00−9вюв2397100 1.8 1023236
11 марта, чт
чт1100:00−9юв2397100 0.3 1021173
03:00−10в2298100 0.6 1019118
06:00−9вюв2397100 0.3 1018222
09:00−7вюв3390100 0.6 1017367
12:00−6в3490100 1.3 1015586
15:00−6в4492100 3.4 1013556
18:00−9св2396100 1.9 1014253
21:00−10св1296100 3.8 1017169